N720CC KBOS-CYTZ

Flight info

Callsign N720CC
Flight time 1h 5m
Altitude 43000
Route HYLND7 HYLND WAYGO ALVID ILIXU ILIXU1
Aircraft C750/M-SBDE3FGHRWXY/S

Departure

Time 2026-05-08 00:50
Airport Boston Logan International Airport (KBOS)

Arrival

Time 2026-05-08 01:56
Airport Billy Bishop Toronto City Airport (CYTZ)
Time Latitude Longitude Altitude Speed Heading
2026-05-08 00:05 42.37417 -71.02049 22 ft 0 kts 314°
2026-05-08 00:24 42.37405 -71.02068 23 ft 0 kts 314°
2026-05-08 00:25 42.37406 -71.02070 23 ft 0 kts 314°
2026-05-08 00:25 42.37408 -71.02072 23 ft 0 kts 314°
2026-05-08 00:38 42.37420 -71.02085 25 ft 2 kts 338°
2026-05-08 00:38 42.37433 -71.02084 22 ft 2 kts
2026-05-08 00:38 42.37449 -71.02076 22 ft 6 kts 27°
2026-05-08 00:39 42.37458 -71.02042 22 ft 4 kts 123°
2026-05-08 00:39 42.37435 -71.02011 23 ft 7 kts 135°
2026-05-08 00:39 42.37385 -71.01944 22 ft 13 kts 135°
2026-05-08 00:39 42.37309 -71.01843 24 ft 18 kts 134°
2026-05-08 00:40 42.37213 -71.01713 22 ft 20 kts 135°
2026-05-08 00:40 42.37117 -71.01586 23 ft 19 kts 135°
2026-05-08 00:40 42.37027 -71.01465 22 ft 18 kts 135°
2026-05-08 00:40 42.36942 -71.01350 23 ft 17 kts 134°
2026-05-08 00:41 42.36861 -71.01242 24 ft 16 kts 135°
2026-05-08 00:41 42.36810 -71.01174 22 ft 15 kts 135°
2026-05-08 00:41 42.36717 -71.01150 22 ft 14 kts 198°
2026-05-08 00:41 42.36628 -71.01193 22 ft 13 kts 199°
2026-05-08 00:42 42.36545 -71.01234 22 ft 12 kts 200°
2026-05-08 00:42 42.36472 -71.01269 22 ft 10 kts 199°
2026-05-08 00:42 42.36379 -71.01314 22 ft 17 kts 199°
2026-05-08 00:42 42.36319 -71.01281 22 ft 9 kts 119°
2026-05-08 00:43 42.36286 -71.01208 22 ft 9 kts 122°
2026-05-08 00:43 42.36253 -71.01125 22 ft 12 kts 116°
2026-05-08 00:43 42.36220 -71.01026 22 ft 9 kts 114°
2026-05-08 00:43 42.36196 -71.00952 23 ft 9 kts 114°
2026-05-08 00:44 42.36162 -71.00851 22 ft 16 kts 114°
2026-05-08 00:44 42.36117 -71.00704 23 ft 16 kts 110°
2026-05-08 00:44 42.36079 -71.00561 23 ft 16 kts 109°
2026-05-08 00:44 42.36044 -71.00420 23 ft 15 kts 109°
2026-05-08 00:45 42.36011 -71.00288 23 ft 14 kts 109°
2026-05-08 00:45 42.35979 -71.00164 22 ft 14 kts 109°
2026-05-08 00:45 42.35936 -71.00058 22 ft 12 kts 131°
2026-05-08 00:45 42.35910 -71.00022 22 ft 0 kts 134°
2026-05-08 00:47 42.35909 -71.00019 22 ft 4 kts 134°
2026-05-08 00:47 42.35842 -70.99929 22 ft 23 kts 135°
2026-05-08 00:48 42.35698 -70.99741 22 ft 30 kts 136°
2026-05-08 00:48 42.35554 -70.99545 22 ft 29 kts 135°
2026-05-08 00:48 42.35488 -70.99413 22 ft 12 kts 85°
2026-05-08 00:48 42.35503 -70.99317 24 ft 10 kts 75°
2026-05-08 00:49 42.35523 -70.99243 24 ft 3 kts 20°
2026-05-08 00:49 42.35528 -70.99249 23 ft 0 kts 314°
2026-05-08 00:50 42.35656 -70.99421 22 ft 79 kts 316°
2026-05-08 00:50 42.36244 -71.00190 189 ft 134 kts 313°
2026-05-08 00:50 42.36970 -71.01038 770 ft 147 kts 317°
2026-05-08 00:51 42.37818 -71.01944 1388 ft 160 kts 319°
2026-05-08 00:51 42.38667 -71.02905 2262 ft 159 kts 317°
2026-05-08 00:51 42.39531 -71.03909 2960 ft 172 kts 316°
2026-05-08 00:51 42.40507 -71.05100 3198 ft 209 kts 316°
2026-05-08 00:52 42.41628 -71.06558 3583 ft 233 kts 309°
2026-05-08 00:52 42.42626 -71.08427 4118 ft 250 kts 309°
2026-05-08 00:52 42.43747 -71.10135 5365 ft 244 kts 312°
2026-05-08 00:52 42.45039 -71.11705 5808 ft 257 kts 321°
2026-05-08 00:53 42.46595 -71.12919 6400 ft 259 kts 334°
2026-05-08 00:53 42.48296 -71.13768 6929 ft 263 kts 339°
2026-05-08 00:53 42.50025 -71.14604 7490 ft 264 kts 336°
2026-05-08 00:53 42.51750 -71.15501 8005 ft 267 kts 338°
2026-05-08 00:54 42.53519 -71.16304 8536 ft 269 kts 338°
2026-05-08 00:54 42.55290 -71.17140 9116 ft 271 kts 337°
2026-05-08 00:54 42.57093 -71.17965 9693 ft 274 kts 337°
2026-05-08 00:54 42.58912 -71.18783 10202 ft 278 kts 337°
2026-05-08 00:55 42.60814 -71.19652 10218 ft 299 kts 337°
2026-05-08 00:55 42.62826 -71.20573 10322 ft 314 kts 337°
2026-05-08 00:55 42.64892 -71.21505 10831 ft 313 kts 337°
2026-05-08 00:55 42.66975 -71.22450 11232 ft 317 kts 336°
2026-05-08 00:56 42.69070 -71.23410 11675 ft 319 kts 336°
2026-05-08 00:56 42.71182 -71.24375 12101 ft 322 kts 336°
2026-05-08 00:56 42.73310 -71.25346 12507 ft 321 kts 335°
2026-05-08 00:56 42.75427 -71.26461 12951 ft 324 kts 326°
2026-05-08 00:57 42.77163 -71.28313 13836 ft 314 kts 308°
2026-05-08 00:57 42.78389 -71.30735 14529 ft 309 kts 291°
2026-05-08 00:57 42.79031 -71.33455 15293 ft 304 kts 278°
2026-05-08 00:57 42.79467 -71.36271 16070 ft 306 kts 277°
2026-05-08 00:58 42.79918 -71.39115 16869 ft 308 kts 276°
2026-05-08 00:58 42.80374 -71.41979 17716 ft 310 kts 276°
2026-05-08 00:58 42.80826 -71.44865 18494 ft 313 kts 275°
2026-05-08 00:58 42.81281 -71.47775 19245 ft 316 kts 275°
2026-05-08 00:59 42.81741 -71.50715 19997 ft 319 kts 275°
2026-05-08 00:59 42.82206 -71.53681 20754 ft 322 kts 275°
2026-05-08 00:59 42.82674 -71.56678 21519 ft 325 kts 275°
2026-05-08 00:59 42.83146 -71.59705 22283 ft 328 kts 275°
2026-05-08 01:00 42.83621 -71.62766 23044 ft 331 kts 274°
2026-05-08 01:00 42.84101 -71.65853 23737 ft 334 kts 274°
2026-05-08 01:00 42.84577 -71.68924 24380 ft 337 kts 274°
2026-05-08 01:00 42.85062 -71.72060 25033 ft 339 kts 274°
2026-05-08 01:01 42.85549 -71.75211 25690 ft 341 kts 275°
2026-05-08 01:01 42.86040 -71.78401 26335 ft 344 kts 275°
2026-05-08 01:01 42.86532 -71.81602 26988 ft 346 kts 275°
2026-05-08 01:01 42.87027 -71.84821 27664 ft 348 kts 275°
2026-05-08 01:02 42.87525 -71.88072 28343 ft 351 kts 275°
2026-05-08 01:02 42.88024 -71.91339 29017 ft 354 kts 275°
2026-05-08 01:02 42.88526 -71.94626 29889 ft 351 kts 274°
2026-05-08 01:02 42.89023 -71.97867 30558 ft 351 kts 274°
2026-05-08 01:03 42.89512 -72.01115 31024 ft 355 kts 274°
2026-05-08 01:03 42.90010 -72.04403 31666 ft 354 kts 275°
2026-05-08 01:03 42.90512 -72.07716 32115 ft 359 kts 275°
2026-05-08 01:03 42.91017 -72.11053 32812 ft 358 kts 275°
2026-05-08 01:04 42.91520 -72.14375 33541 ft 356 kts 275°
2026-05-08 01:04 42.92016 -72.17682 34175 ft 356 kts 275°
2026-05-08 01:04 42.92511 -72.20995 34689 ft 357 kts 275°
2026-05-08 01:04 42.93009 -72.24320 35205 ft 358 kts 275°
2026-05-08 01:05 42.93510 -72.27666 35714 ft 360 kts 275°
2026-05-08 01:05 42.94010 -72.31017 36233 ft 361 kts 275°
2026-05-08 01:05 42.94511 -72.34386 36748 ft 362 kts 275°
2026-05-08 01:05 42.95011 -72.37760 37243 ft 364 kts 275°
2026-05-08 01:06 42.95514 -72.41148 37784 ft 365 kts 275°
2026-05-08 01:06 42.96017 -72.44548 38336 ft 366 kts 275°
2026-05-08 01:06 42.96522 -72.47967 38792 ft 367 kts 275°
2026-05-08 01:06 42.97025 -72.51391 39239 ft 367 kts 275°
2026-05-08 01:07 42.97529 -72.54819 39681 ft 367 kts 275°
2026-05-08 01:07 42.98031 -72.58246 40101 ft 368 kts 276°
2026-05-08 01:07 42.98533 -72.61677 40510 ft 369 kts 276°
2026-05-08 01:07 42.99029 -72.65078 40908 ft 370 kts 276°
2026-05-08 01:08 42.99532 -72.68527 41294 ft 371 kts 276°
2026-05-08 01:08 43.00034 -72.71984 41693 ft 371 kts 276°
2026-05-08 01:08 43.00536 -72.75447 42079 ft 372 kts 276°
2026-05-08 01:08 43.01036 -72.78910 42459 ft 373 kts 277°
2026-05-08 01:09 43.01540 -72.82398 42819 ft 374 kts 277°
2026-05-08 01:09 43.02565 -72.89551 42859 ft 393 kts 277°
2026-05-08 01:10 43.03638 -72.97033 42883 ft 410 kts 277°
2026-05-08 01:10 43.04751 -73.04851 42880 ft 428 kts 277°
2026-05-08 01:11 43.05897 -73.12939 42876 ft 443 kts 277°
2026-05-08 01:11 43.07078 -73.21319 42878 ft 454 kts 277°
2026-05-08 01:12 43.08278 -73.29884 42883 ft 462 kts 277°
2026-05-08 01:12 43.09489 -73.38574 42877 ft 467 kts 277°
2026-05-08 01:13 43.10704 -73.47347 42881 ft 471 kts 277°
2026-05-08 01:13 43.11912 -73.56126 42883 ft 473 kts 277°
2026-05-08 01:14 43.13125 -73.64991 42884 ft 474 kts 277°
2026-05-08 01:14 43.14334 -73.73881 42889 ft 473 kts 277°
2026-05-08 01:15 43.15532 -73.82741 42888 ft 473 kts 277°
2026-05-08 01:15 43.16719 -73.91581 42887 ft 472 kts 277°
2026-05-08 01:16 43.17903 -74.00441 42888 ft 472 kts 277°
2026-05-08 01:16 43.19071 -74.09247 42903 ft 472 kts 277°
2026-05-08 01:17 43.20240 -74.18109 42899 ft 472 kts 277°
2026-05-08 01:17 43.21401 -74.26966 42893 ft 471 kts 277°
2026-05-08 01:18 43.22553 -74.35814 42902 ft 472 kts 277°
2026-05-08 01:18 43.23693 -74.44621 42911 ft 472 kts 277°
2026-05-08 01:19 43.24836 -74.53510 42905 ft 473 kts 277°
2026-05-08 01:19 43.25972 -74.62397 42910 ft 473 kts 277°
2026-05-08 01:20 43.27103 -74.71304 42911 ft 474 kts 277°
2026-05-08 01:20 43.28231 -74.80250 42910 ft 475 kts 277°
2026-05-08 01:21 43.29352 -74.89196 42919 ft 475 kts 277°
2026-05-08 01:21 43.30462 -74.98110 42924 ft 476 kts 277°
2026-05-08 01:22 43.31572 -75.07086 42926 ft 476 kts 277°
2026-05-08 01:22 43.32676 -75.16078 42926 ft 477 kts 277°
2026-05-08 01:23 43.33774 -75.25072 42933 ft 477 kts 277°
2026-05-08 01:23 43.34857 -75.34013 42931 ft 478 kts 277°
2026-05-08 01:24 43.35942 -75.43027 42928 ft 478 kts 277°
2026-05-08 01:24 43.37021 -75.52057 42928 ft 478 kts 276°
2026-05-08 01:25 43.38092 -75.61081 42929 ft 478 kts 276°
2026-05-08 01:25 43.39158 -75.70119 42926 ft 479 kts 276°
2026-05-08 01:26 43.40210 -75.79106 42926 ft 479 kts 276°
2026-05-08 01:26 43.42025 -75.87969 42907 ft 485 kts 288°
2026-05-08 01:27 43.45345 -75.96126 42911 ft 495 kts 301°
2026-05-08 01:27 43.49173 -76.02084 42918 ft 502 kts 309°
2026-05-08 01:28 43.54095 -76.08930 42921 ft 503 kts 309°
2026-05-08 01:28 43.59009 -76.15796 42927 ft 503 kts 309°
2026-05-08 01:29 43.63940 -76.22687 42918 ft 504 kts 309°
2026-05-08 01:29 43.68861 -76.29596 42918 ft 505 kts 309°
2026-05-08 01:30 43.73783 -76.36511 42918 ft 505 kts 309°
2026-05-08 01:30 43.78710 -76.43460 42920 ft 506 kts 309°
2026-05-08 01:31 43.83598 -76.50366 42917 ft 506 kts 309°
2026-05-08 01:31 43.87809 -76.58039 42902 ft 496 kts 296°
2026-05-08 01:32 43.90474 -76.66730 42901 ft 490 kts 283°
2026-05-08 01:32 43.91588 -76.76011 42921 ft 486 kts 274°
2026-05-08 01:33 43.92237 -76.85361 42920 ft 487 kts 274°
2026-05-08 01:33 43.92873 -76.94667 42918 ft 487 kts 274°
2026-05-08 01:34 43.93500 -77.03973 42900 ft 468 kts 274°
2026-05-08 01:34 43.93798 -77.08347 42602 ft 446 kts 274°
2026-05-08 01:34 43.94081 -77.12635 40818 ft 452 kts 273°
2026-05-08 01:34 43.94366 -77.17081 38440 ft 474 kts 273°
2026-05-08 01:35 43.94666 -77.21650 36238 ft 479 kts 274°
2026-05-08 01:35 43.94973 -77.26239 34307 ft 474 kts 274°
2026-05-08 01:35 43.95268 -77.30771 31878 ft 469 kts 274°
2026-05-08 01:35 43.95269 -77.35291 28798 ft 474 kts 264°
2026-05-08 01:36 43.94624 -77.39748 26856 ft 464 kts 255°
2026-05-08 01:36 43.93633 -77.43892 25862 ft 438 kts 252°
2026-05-08 01:36 43.92702 -77.47722 25242 ft 410 kts 252°
2026-05-08 01:36 43.91819 -77.51376 24298 ft 393 kts 252°
2026-05-08 01:37 43.90944 -77.54964 22806 ft 393 kts 252°
2026-05-08 01:37 43.90073 -77.58514 21552 ft 384 kts 252°
2026-05-08 01:37 43.89224 -77.61973 20344 ft 374 kts 252°
2026-05-08 01:37 43.88394 -77.65363 19151 ft 367 kts 252°
2026-05-08 01:38 43.87581 -77.68674 18005 ft 359 kts 252°
2026-05-08 01:38 43.86782 -77.71920 16780 ft 351 kts 252°
2026-05-08 01:38 43.86001 -77.75090 15639 ft 343 kts 252°
2026-05-08 01:38 43.85239 -77.78178 14565 ft 339 kts 252°
2026-05-08 01:39 43.84471 -77.81296 13945 ft 335 kts 252°
2026-05-08 01:39 43.83720 -77.84326 13926 ft 333 kts 252°
2026-05-08 01:39 43.82967 -77.87364 13925 ft 333 kts 251°
2026-05-08 01:39 43.82213 -77.90406 13928 ft 334 kts 251°
2026-05-08 01:40 43.81469 -77.93404 13928 ft 333 kts 251°
2026-05-08 01:40 43.80713 -77.96443 13980 ft 334 kts 251°
2026-05-08 01:40 43.79955 -77.99489 13978 ft 334 kts 251°
2026-05-08 01:40 43.79197 -78.02529 13978 ft 334 kts 251°
2026-05-08 01:41 43.78438 -78.05569 13973 ft 334 kts 251°
2026-05-08 01:41 43.77678 -78.08610 13972 ft 334 kts 251°
2026-05-08 01:41 43.76917 -78.11647 13975 ft 334 kts 251°
2026-05-08 01:41 43.76155 -78.14691 13979 ft 334 kts 251°
2026-05-08 01:42 43.75392 -78.17729 13984 ft 334 kts 251°
2026-05-08 01:42 43.74629 -78.20767 13985 ft 334 kts 251°
2026-05-08 01:42 43.73865 -78.23801 13986 ft 334 kts 251°
2026-05-08 01:42 43.73111 -78.26797 13988 ft 334 kts 251°
2026-05-08 01:43 43.72345 -78.29833 13990 ft 334 kts 251°
2026-05-08 01:43 43.71720 -78.32893 13939 ft 334 kts 260°
2026-05-08 01:43 43.71503 -78.36052 13378 ft 327 kts 265°
2026-05-08 01:43 43.71342 -78.39176 12940 ft 325 kts 265°
2026-05-08 01:44 43.71150 -78.42281 12512 ft 323 kts 264°
2026-05-08 01:44 43.70939 -78.45366 12082 ft 321 kts 264°
2026-05-08 01:44 43.70742 -78.48431 11656 ft 319 kts 265°
2026-05-08 01:44 43.70553 -78.51481 11234 ft 317 kts 265°
2026-05-08 01:45 43.70364 -78.54444 10822 ft 298 kts 265°
2026-05-08 01:45 43.70185 -78.57194 10435 ft 277 kts 265°
2026-05-08 01:45 43.70018 -78.59769 10064 ft 262 kts 265°
2026-05-08 01:45 43.69857 -78.62250 9724 ft 257 kts 265°
2026-05-08 01:46 43.69698 -78.64700 9378 ft 255 kts 265°
2026-05-08 01:46 43.69539 -78.67139 9045 ft 255 kts 265°
2026-05-08 01:46 43.69380 -78.69570 8716 ft 254 kts 265°
2026-05-08 01:46 43.69221 -78.71981 8155 ft 250 kts 265°
2026-05-08 01:47 43.69062 -78.74400 7332 ft 258 kts 265°
2026-05-08 01:47 43.68901 -78.76837 6986 ft 247 kts 265°
2026-05-08 01:47 43.68742 -78.79213 6999 ft 250 kts 265°
2026-05-08 01:48 43.68287 -78.83998 6965 ft 254 kts 254°
2026-05-08 01:48 43.67681 -78.86285 7003 ft 254 kts 251°
2026-05-08 01:48 43.67077 -78.88577 6979 ft 250 kts 252°
2026-05-08 01:48 43.66505 -78.90832 6222 ft 252 kts 252°
2026-05-08 01:49 43.65925 -78.93129 5488 ft 253 kts 251°
2026-05-08 01:49 43.65326 -78.95463 4986 ft 255 kts 251°
2026-05-08 01:49 43.64739 -78.97741 5002 ft 253 kts 251°
2026-05-08 01:49 43.64152 -79.00024 5015 ft 253 kts 251°
2026-05-08 01:50 43.63564 -79.02312 5015 ft 253 kts 251°
2026-05-08 01:50 43.63151 -79.04565 4951 ft 253 kts 267°
2026-05-08 01:50 43.63413 -79.06794 4662 ft 243 kts 290°
2026-05-08 01:50 43.64203 -79.08736 4608 ft 220 kts 300°
2026-05-08 01:51 43.64949 -79.10439 4576 ft 201 kts 299°
2026-05-08 01:51 43.65580 -79.11910 4244 ft 197 kts 299°
2026-05-08 01:51 43.66289 -79.13561 3622 ft 202 kts 300°
2026-05-08 01:51 43.67008 -79.15225 3120 ft 201 kts 300°
2026-05-08 01:52 43.67518 -79.17000 2415 ft 205 kts 277°
2026-05-08 01:52 43.67247 -79.18949 1940 ft 200 kts 252°
2026-05-08 01:52 43.66857 -79.20752 2022 ft 198 kts 254°
2026-05-08 01:52 43.66480 -79.22577 2018 ft 198 kts 254°
2026-05-08 01:53 43.66105 -79.24394 2015 ft 199 kts 254°
2026-05-08 01:53 43.65730 -79.26212 1989 ft 197 kts 255°
2026-05-08 01:53 43.65358 -79.28044 1996 ft 199 kts 255°
2026-05-08 01:53 43.64983 -79.29883 1778 ft 193 kts 255°
2026-05-08 01:54 43.64677 -79.31440 1607 ft 157 kts 256°
2026-05-08 01:54 43.64422 -79.32731 1430 ft 133 kts 255°
2026-05-08 01:54 43.64163 -79.33921 1181 ft 127 kts 254°
2026-05-08 01:54 43.63936 -79.35088 949 ft 124 kts 256°
2026-05-08 01:55 43.63752 -79.36232 729 ft 124 kts 253°
2026-05-08 01:55 43.63483 -79.37338 578 ft 122 kts 251°
2026-05-08 01:55 43.63208 -79.38442 394 ft 122 kts 250°
2026-05-08 01:55 43.62942 -79.39514 263 ft 103 kts 252°
2026-05-08 01:56 43.62805 -79.40093 253 ft 46 kts 251°
2026-05-08 01:56 43.62770 -79.40321 253 ft 8 kts 311°
2026-05-08 01:56 43.62811 -79.40332 252 ft 0 kts
2026-05-08 01:57 43.62817 -79.40330 252 ft 3 kts 11°
2026-05-08 01:57 43.62833 -79.40317 252 ft 3 kts 36°
2026-05-08 01:57 43.62850 -79.40299 252 ft 3 kts 39°
2026-05-08 01:57 43.62870 -79.40276 251 ft 4 kts 39°
2026-05-08 01:58 43.62897 -79.40247 251 ft 5 kts 39°
2026-05-08 01:58 43.62925 -79.40216 251 ft 5 kts 39°
2026-05-08 01:58 43.62939 -79.40198 252 ft 0 kts 43°
2026-05-08 01:58 43.62947 -79.40188 252 ft 6 kts 43°
2026-05-08 01:59 43.62961 -79.40169 252 ft 3 kts 43°
2026-05-08 01:59 43.62995 -79.40119 253 ft 12 kts 52°
2026-05-08 01:59 43.63015 -79.39992 255 ft 17 kts 113°
2026-05-08 01:59 43.62971 -79.39803 256 ft 23 kts 75°
2026-05-08 02:00 43.63024 -79.39621 256 ft 14 kts 80°
2026-05-08 02:00 43.63053 -79.39501 256 ft 13 kts 70°
2026-05-08 02:00 43.63081 -79.39387 256 ft 13 kts 72°
2026-05-08 02:00 43.63143 -79.39335 256 ft 11 kts 352°
2026-05-08 02:01 43.63206 -79.39390 256 ft 11 kts 323°
2026-05-08 02:01 43.63241 -79.39420 256 ft 3 kts 33°
2026-05-08 02:01 43.63251 -79.39400 256 ft 3 kts 52°